Coatesville, PA

8:16 PM EST on November 13, 2019 (GMT -0500)
Chester County Carlson

Weather History for KMQS - September, 2019

Change the Weather History Date:

Friday, September 20, 2019

  Actual Average (WUND) Record (WUND)
Temperature  
Mean Temperature 60 °F -  
Max Temperature 75 °F - - (-1)
Min Temperature 46 °F - - (-1)
Degree Days  
Heating Degree Days 4    
Growing Degree Days 10 (Base 50)    
Moisture  
Dew Point 49 °F    
Average Humidity 66    
Maximum Humidity 93    
Minimum Humidity 38    
Precipitation  
Precipitation 0.00 in - - ()
Sea Level Pressure  
Sea Level Pressure 30.27 in    
Wind  
Wind Speed 3 mph ()    
Max Wind Speed 8 mph    
Max Gust Speed 12 mph    
Visibility 10.0 miles    
Events      
Averages and records for this station are not official NWS values.
T = Trace of Precipitation, MM = Missing Value Source: Averaged Metar Reports

Daily Weather History Graph

Daily Weather History Graph

Search for Another Location

Airport or City:

Astronomy

Sep. 20, 2019 Rise Set
Actual Time 6:48 AM EDT 7:04 PM EDT
Civil Twilight 6:21 AM EDT 7:31 PM EDT
Nautical Twilight 5:50 AM EDT 8:02 PM EDT
Astronomical Twilight 5:17 AM EDT 8:35 PM EDT
Moon 10:52 PM EDT (9/20) 12:51 PM EDT (9/20)
Length of Visible Light 13h 09m
Length of Day
12h 15m
Waning Gibbous, 65% of the Moon is Illuminated
Sep 20
Waning Gibbous
Sep 21
Last Quarter
Sep 28
New
Oct 5
First Quarter
Oct 13
Full

Hourly Weather History & Observations

Time (EDT) Temp. Windchill Dew Point Humidity Pressure Visibility Wind Dir Wind Speed Gust Speed Precip Events Conditions
12:15 AM 50.0 °F - 44.6 °F 82% 30.30 in 10.0 mi Calm Calm - N/A   Clear
12:35 AM 50.0 °F - 44.6 °F 82% 30.30 in 10.0 mi Calm Calm - N/A   Clear
12:55 AM 53.6 °F - 44.6 °F 72% 30.30 in 10.0 mi Calm Calm - N/A   Clear
1:15 AM 50.0 °F - 44.6 °F 82% 30.30 in 10.0 mi Calm Calm - N/A   Clear
1:35 AM 51.8 °F - 46.4 °F 82% 30.30 in 10.0 mi Calm Calm - N/A   Clear
1:55 AM 51.8 °F - 46.4 °F 82% 30.30 in 10.0 mi Calm Calm - N/A   Clear
2:15 AM 46.4 °F 45.2 °F 44.6 °F 93% 30.30 in 10.0 mi Variable 3.5 mph - N/A   Clear
2:35 AM 48.2 °F - 44.6 °F 87% 30.30 in 10.0 mi West 3.5 mph - N/A   Clear
2:55 AM 50.0 °F - 44.6 °F 82% 30.29 in 10.0 mi West 4.6 mph - N/A   Clear
3:15 AM 50.0 °F - 46.4 °F 87% 30.30 in 10.0 mi West 4.6 mph - N/A   Clear
3:35 AM 51.8 °F - 46.4 °F 82% 30.30 in 10.0 mi Variable 4.6 mph - N/A   Clear
3:55 AM 50.0 °F - 46.4 °F 87% 30.30 in 10.0 mi West 4.6 mph - N/A   Clear
4:15 AM 51.8 °F - 46.4 °F 82% 30.30 in 10.0 mi West 6.9 mph - N/A   Clear
4:35 AM 53.6 °F - 48.2 °F 82% 30.30 in 10.0 mi West 6.9 mph - N/A   Clear
4:55 AM 51.8 °F - 48.2 °F 88% 30.30 in 10.0 mi West 5.8 mph - N/A   Clear
5:15 AM 50.0 °F - 46.4 °F 87% 30.30 in 10.0 mi West 4.6 mph - N/A   Clear
5:35 AM 48.2 °F - 44.6 °F 87% 30.30 in 10.0 mi West 4.6 mph - N/A   Clear
5:55 AM 50.0 °F - 46.4 °F 87% 30.30 in 10.0 mi West 4.6 mph - N/A   Clear
6:15 AM 48.2 °F - 44.6 °F 87% 30.30 in 10.0 mi Variable 4.6 mph - N/A   Clear
6:35 AM 50.0 °F - 46.4 °F 87% 30.30 in 10.0 mi West 5.8 mph - N/A   Clear
6:55 AM 51.8 °F - 46.4 °F 82% 30.31 in 10.0 mi West 4.6 mph - N/A   Clear
7:15 AM 53.6 °F - 48.2 °F 82% 30.31 in 10.0 mi Variable 5.8 mph - N/A   Clear
7:35 AM 53.6 °F - 48.2 °F 82% 30.32 in 10.0 mi West 5.8 mph - N/A   Clear
7:55 AM 53.6 °F - 50.0 °F 88% 30.32 in 10.0 mi West 4.6 mph - N/A   Clear
8:15 AM 55.4 °F - 50.0 °F 82% 30.33 in 10.0 mi Variable 5.8 mph - N/A   Clear
8:35 AM 57.2 °F - 51.8 °F 82% 30.33 in 10.0 mi West 4.6 mph - N/A   Clear
8:55 AM 59.0 °F - 51.8 °F 77% 30.33 in 10.0 mi West 3.5 mph - N/A   Clear
9:15 AM 60.8 °F - 51.8 °F 72% 30.34 in 10.0 mi Variable 4.6 mph - N/A   Clear
9:35 AM 62.6 °F - 51.8 °F 68% 30.34 in 10.0 mi Variable 6.9 mph - N/A   Clear
9:55 AM 64.4 °F - 51.8 °F 64% 30.33 in 10.0 mi Variable 6.9 mph - N/A   Clear
10:35 AM 66.2 °F - 51.8 °F 60% 30.33 in 10.0 mi Variable 6.9 mph - N/A   Clear
10:55 AM 66.2 °F - 51.8 °F 60% 30.32 in 10.0 mi Variable 4.6 mph - N/A   Clear
11:15 AM 68.0 °F - 50.0 °F 52% 30.31 in 10.0 mi Variable 3.5 mph - N/A   Clear
11:35 AM 69.8 °F - 50.0 °F 49% 30.30 in 10.0 mi Variable 5.8 mph - N/A   Clear
11:55 AM 69.8 °F - 50.0 °F 49% 30.30 in 10.0 mi NW 5.8 mph - N/A   Clear
12:15 PM 69.8 °F - 48.2 °F 46% 30.29 in 10.0 mi WNW 8.1 mph - N/A   Clear
12:35 PM 71.6 °F - 50.0 °F 46% 30.28 in 10.0 mi WNW 6.9 mph - N/A   Clear
12:55 PM 71.6 °F - 48.2 °F 43% 30.28 in 10.0 mi Variable 5.8 mph - N/A   Clear
1:15 PM 71.6 °F - 50.0 °F 46% 30.27 in 10.0 mi Variable 3.5 mph - N/A   Clear
1:35 PM 73.4 °F - 50.0 °F 44% 30.26 in 10.0 mi Variable 6.9 mph - N/A   Clear
1:55 PM 73.4 °F - 50.0 °F 44% 30.25 in 10.0 mi Calm Calm - N/A   Clear
2:15 PM 75.2 °F - 48.2 °F 38% 30.24 in 10.0 mi Variable 4.6 mph - N/A   Clear
2:35 PM 75.2 °F - 48.2 °F 38% 30.24 in 10.0 mi WSW 4.6 mph - N/A   Clear
2:55 PM 75.2 °F - 48.2 °F 38% 30.23 in 10.0 mi WSW 6.9 mph - N/A   Clear
3:15 PM 75.2 °F - 48.2 °F 38% 30.23 in 10.0 mi Variable 5.8 mph 11.5 mph N/A   Clear
3:35 PM 75.2 °F - 48.2 °F 38% 30.22 in 10.0 mi WSW 8.1 mph - N/A   Clear
3:55 PM 75.2 °F - 48.2 °F 38% 30.22 in 10.0 mi Variable 5.8 mph - N/A   Clear
4:15 PM 75.2 °F - 48.2 °F 38% 30.22 in 10.0 mi WSW 4.6 mph 11.5 mph N/A   Clear
4:35 PM 75.2 °F - 48.2 °F 38% 30.22 in 10.0 mi Calm Calm - N/A   Clear
4:55 PM 75.2 °F - 50.0 °F 41% 30.21 in 10.0 mi Calm Calm - N/A   Clear
5:15 PM 75.2 °F - 48.2 °F 38% 30.21 in 10.0 mi Variable 5.8 mph - N/A   Clear
5:35 PM 75.2 °F - 50.0 °F 41% 30.21 in 10.0 mi Calm Calm - N/A   Clear
5:55 PM 73.4 °F - 50.0 °F 44% 30.21 in 10.0 mi Calm Calm - N/A   Clear
6:15 PM 73.4 °F - 50.0 °F 44% 30.22 in 10.0 mi SW 3.5 mph - N/A   Clear
6:35 PM 71.6 °F - 50.0 °F 46% 30.22 in 10.0 mi Calm Calm - N/A   Clear
6:55 PM 69.8 °F - 53.6 °F 56% 30.22 in 10.0 mi Calm Calm - N/A   Clear
7:15 PM 68.0 °F - 53.6 °F 60% 30.23 in 10.0 mi Calm Calm - N/A   Clear
7:35 PM 66.2 °F - 53.6 °F 64% 30.23 in 10.0 mi Calm Calm - N/A   Clear
7:55 PM 66.2 °F - 53.6 °F 64% 30.24 in 10.0 mi Calm Calm - N/A   Clear
8:15 PM 66.2 °F - 53.6 °F 64% 30.24 in 10.0 mi Variable 3.5 mph - N/A   Clear
8:35 PM 64.4 °F - 53.6 °F 68% 30.24 in 10.0 mi Calm Calm - N/A   Clear
8:55 PM 64.4 °F - 53.6 °F 68% 30.25 in 10.0 mi WSW 4.6 mph - N/A   Clear
9:15 PM 62.6 °F - 53.6 °F 72% 30.25 in 10.0 mi West 3.5 mph - N/A   Clear
9:35 PM 62.6 °F - 53.6 °F 72% 30.25 in 10.0 mi Calm Calm - N/A   Clear
9:55 PM 62.6 °F - 53.6 °F 72% 30.25 in 10.0 mi Calm Calm - N/A   Clear
10:15 PM 62.6 °F - 53.6 °F 72% 30.25 in 10.0 mi WSW 4.6 mph - N/A   Clear
10:35 PM 60.8 °F - 53.6 °F 77% 30.25 in 10.0 mi Calm Calm - N/A   Clear
10:55 PM 60.8 °F - 53.6 °F 77% 30.25 in 10.0 mi Variable 3.5 mph - N/A   Clear
11:15 PM 62.6 °F - 55.4 °F 77% 30.25 in 10.0 mi WSW 4.6 mph - N/A   Clear
11:35 PM 60.8 °F - 55.4 °F 82% 30.25 in 10.0 mi WSW 4.6 mph - N/A   Clear
11:55 PM 60.8 °F - 55.4 °F 82% 30.25 in 10.0 mi WSW 3.5 mph - N/A   Clear